Regional Weather Roundup
Issued by NWS

Home | Current Version | Previous Version | Graphics & Text | Print | Product List | Glossary On
Versions: 1 2 3 4 5 6 7 8 9 10 11 12 13 14 15 16 17 18 19 20 21 22 23 24 25 26 27 28 29 30 31 32 33 34 35 36 37 38 39 40 41 42 43 44 45 46 47 48 49 50
000
ASUS43 KLMK 212010
RWRKY
KENTUCKY REGIONAL WEATHER ROUNDUP
NATIONAL WEATHER SERVICE LOUISVILLE KY
400 PM EDT FRI JUL 21 2017

NOTE "FAIR" INDICATES FEW OR NO CLOUDS BELOW 12,000 FEET
WITH NO SIGNIFICANT WEATHER AND/OR OBSTRUCTIONS TO VISIBILITY.

KYZ001>023-026-027-061>063-070>075-212100-
WESTERN AND SOUTH CENTRAL KENTUCKY

CITY           SKY/WX    TMP DP  RH WIND       PRES   REMARKS
PADUCAH        SUNNY     96  75  50 VRB6      29.96F HX 108
HENDERSON      MOSUNNY   96  77  54 SW5       29.96F HX 111
OWENSBORO      MOSUNNY   96  78  56 S7        29.97F HX 112
HOPKINSVILLE   MOSUNNY   93  75  55 SW8       29.99F HX 104
BOWLING GREEN  MOSUNNY   95  73  48 S8        30.00F HX 104
GLASGOW        MOSUNNY   92  71  50 S5        30.01F HX  98
$$

KYZ024-025-028>034-038-045-046-053-212100-
NORTH CENTRAL KENTUCKY

CITY           SKY/WX    TMP DP  RH WIND       PRES   REMARKS
LOUISVILLE/SDF PTSUNNY   96  74  48 S10       29.97F HX 107
LOUISVILLE/LOU PTSUNNY   95  75  52 SW9       29.98F HX 107
FORT KNOX      MOSUNNY   93  73  50 S9        29.99F HX 101
$$

KYZ035>037-039>044-047>052-055>060-089>105-212100-
NORTHEAST KENTUCKY

CITY           SKY/WX    TMP DP  RH WIND       PRES   REMARKS
LEXINGTON      SUNNY     93  72  50 SW8       30.02F HX 101
COVINGTON      CLOUDY    88  76  67 W8        30.01F HX  99
FRANKFORT      MOSUNNY   92  71  50 SW8       29.99F HX  98
$$

KYZ054-064>069-076>088-106>120-212100-
SOUTHEAST KENTUCKY

CITY           SKY/WX    TMP DP  RH WIND       PRES   REMARKS
JACKSON        MOSUNNY   90  72  55 VRB6      30.04F HX  97
LONDON         SUNNY     93  65  39 W8        30.04F HX  95
SOMERSET       MOSUNNY   90  68  48 W9        30.04F HX  93
MIDDLESBORO    SUNNY     91  70  51 CALM      30.05F HX  96
MONTICELLO     CLEAR     93  74  53 W10       30.05F HX 103
$$





USA.gov is the U.S. government's official web portal to all federal, state and local government web resources and services.